HXMT (HUIYAN)

Last updated on Fri Oct 24 2025 00:02:15 GMT+0000 (Coordinated Universal Time)

1 42758U 17034A 25296.64654684 .00007421 00000+0 39298-3 0 9995 2 42758 43.0150 57.4386 0031786 89.0876 271.3613 15.15417127461735
UTC large
Height (km)
Speed (km/s)
/
Latitude / Longitude
Inclination (degrees)
Orbital Period (minutes)
Azimuth
Elevation
Range (km)
Doppler Factor

Next 0 passes for location: London (51.5072 / 0.1276)

Sorry there are no passes over London.